Miscellaneous Local Product
Issued by NWS North Platte, NE

Home | Current Version | Previous Version | Graphics & Text | Print | Product List | Glossary On
Versions: 1 2 3 4 5 6 7 8 9 10 11 12 13 14 15 16 17 18 19 20 21 22 23 24 25 26 27 28 29 30 31 32 33 34 35 36 37 38 39 40 41 42 43 44 45 46 47 48 49 50
000
AXUS43 KLBF 250610
MISLBF


WESTERN AND NORTH CENTRAL NEBRASKA HOURLY WEATHER ROUNDUP
NATIONAL WEATHER SERVICE NORTH PLATTE NE
100 AM CDT THU AUG 25 2016

NOTE: "FAIR" INDICATES FEW OR NO CLOUDS BELOW 12,000 FEET WITH NO
SIGNIFICANT WEATHER AND/OR OBSTRUCTIONS TO VISIBILITY.

NOTE: STATIONS NOT REPORTING VARIABLES SUCH AS SKY/WEATHER OR
PRESSURE ARE PROVIDED BY RAWS AND APRS NETWORKS AND ARE NOT UNDER
NATIONAL WEATHER SERVICE QUALITY CONTROL.

...OBSERVATIONS IN AND NEAR THE EASTERN PANHANDLE OF NEBRASKA...

CITY           SKY/WX    TMP DP  RH WIND       PRES   REMARKS
PINE RIDGE     CLOUDY    57  55  93 N6        30.22R
CHADRON        CLOUDY    58  53  84 E6        30.21R
ALLIANCE       CLEAR     53  49  86 E6        30.21F
SIDNEY         CLEAR     50  41  71 S7        30.23S
CRESCENT LAKE    N/A     55  49  79 N6          N/A
$$

...OBSERVATIONS IN NORTHERN NEBRASKA AND FAR SOUTHERN SOUTH DAKOTA...

CITY           SKY/WX    TMP DP  RH WIND       PRES   REMARKS
WINNER         FAIR      62  52  69 SW7       30.12S
VALENTINE      PTCLDY    53  49  86 W8        30.16
THEDFORD       CLOUDY    57  52  81 CALM      30.20S
AINSWORTH      CLOUDY    59  55  85 CALM      30.16F
O`NEILL        MOCLDY    60  53  76 W6        30.14S
ORD            CLOUDY    59  55  87 NW3       30.13F
BROKEN BOW     CLOUDY    57  54  89 CALM      30.16S
VALENTINE NWR    N/A     56  52  88 CALM        N/A
BUTTE            N/A     61  53  75 SW3         N/A
HALSEY           N/A     59  48  67 CALM        N/A
EWING            N/A     58  56  94 CALM        N/A
$$

...OBSERVATIONS IN SOUTHWEST NEBRASKA AND FAR NORTHEAST COLORADO...

CITY           SKY/WX    TMP DP  RH WIND       PRES   REMARKS
WRAY           FAIR      55  43  62 N3        30.21F
HOLYOKE        FAIR      54  48  82 CALM      30.21F
IMPERIAL       CLOUDY    59  50  72 NW3       30.20S
OGALLALA       CLOUDY    52  47  83 CALM      30.20S
NORTH PLATTE   PTCLDY    57  50  77 SE3       30.18S
MCCOOK         PTCLDY    58  52  80 NW8       30.16S
LEXINGTON      CLOUDY    59  52  77 CALM      30.15F
STAPLETON        N/A     57  51  80 CALM        N/A
GOTHENBURG       N/A     62  48  61 NW5         N/A
CALLAWAY         N/A     56  52  86 CALM        N/A
$$

...OBSERVATIONS IN CENTRAL LINCOLN COUNTY AREA...

CITY           SKY/WX    TMP DP  RH WIND       PRES   REMARKS
N.P. AIRPORT   PTCLDY    57  50  77 SE3       30.18S
N.P. DOWNTOWN    N/A     61  51  70 CALM        N/A
N.P. HILLCREST   N/A     62  50  65 NE6         N/A
$$

...SOME OBSERVATIONS FROM AROUND THE REGION...

CITY           SKY/WX    TMP DP  RH WIND       PRES   REMARKS
DENVER         CLOUDY    56  50  80 S6        30.24F
LARAMIE        CLEAR     44  39  82 E5        30.28S
CHEYENNE       CLOUDY    51  46  83 E3        30.27F
SCOTTSBLUFF    CLOUDY    55  49  80 S7        30.22S
RAPID CITY     MOCLDY    57  45  64 N10       30.24R
BISMARCK       CLOUDY    58  50  75 W14G23    30.08S
PIERRE         CLEAR     60  47  61 NW10      30.12R
SIOUX FALLS    CLEAR     62  57  83 CALM      30.08R
OMAHA          PTCLDY    63  60  90 N6        30.06
GRAND ISLAND   PTCLDY    62  56  80 N6        30.12S
KANSAS CITY    CLOUDY    71  68  90 SE6       30.02F
WICHITA        CLOUDY    74  69  85 S15       30.02F
OKLAHOMA CITY  PTCLDY    78  69  73 S9        30.04S
DALLAS         PTCLDY    82  69  64 S12       30.04F
AMARILLO       CLEAR     68  58  70 W8        30.15R
DODGE CITY     RAIN      62  62 100 NW8       30.12R FOG
HAYS           MOCLDY    63  50  63 NE3       30.11R
GOODLAND       CLOUDY    57  50  77 CALM      30.18F
$$




USA.gov is the U.S. government's official web portal to all federal, state and local government web resources and services.